Location: Unspecified
(54.1780°N, 0.0000°E)
Time: 06:24:00
(UTC+00:00)

Explorer 7 - Pass Details

Date: 24 June 2019
Orbit: 485 x 680 km, 50.3° (Epoch: 15 July)

Event Time Altitude Azimuth Distance (km) Brightness Sun altitude
Rises 08:50:10 0° 228° (SW) 2,759 10.2 42.9°
Reaches altitude 10° 08:52:32 10° 218° (SW) 1,899 9.5 43.3°
Maximum altitude 08:56:25 32° 155° (SSE) 1,046 9.3 43.8°
Drops below altitude 10° 09:00:31 10° 93° (E) 2,015 10.6 44.3°
Sets 09:03:05 0° 83° (E) 2,957 11.1 44.7°
